LA METEO DE GRANDFRESNOY - OISE - (60) - ALT.75 m
Donnes mto: Actuelle mercredi, 18/09/2019 01:10
Date Horaire Temp. E. Hum. E. P.atmo. Pluie Vent Direction Direction Ensoleilleme Horaire Temp Ev.Tr. UV Ray;solaire P. de rose Temp au vent Rafales Rception
18/09/2019 01:10 12,3 C 74 % 1025,0 hPa 0,0 mm 9,0 km/h (2 Bft) N-NE 32 0 min 0 min 0,000 mm 0,0 UV-I 0 W/m 7,8 C 10,7 C 15,9 km/h (3 Bft) 96,30 %
18/09/2019 01:09 12,3 C 74 % 1025,0 hPa 0,0 mm 11,4 km/h (2 Bft) N-NE 13 0 min 0 min 0,000 mm 0,0 UV-I 0 W/m 7,8 C 9,4 C 17,7 km/h (3 Bft) 100,00 %
18/09/2019 01:08 12,4 C 74 % 1025,0 hPa 0,0 mm 9,6 km/h (2 Bft) NE 46 0 min 0 min 0,000 mm 0,0 UV-I 0 W/m 7,9 C 10,5 C 15,9 km/h (3 Bft) 92,00 %
18/09/2019 01:07 12,4 C 74 % 1025,0 hPa 0,0 mm 9,3 km/h (2 Bft) NE 50 0 min 0 min 0,000 mm 0,0 UV-I 0 W/m 7,9 C 10,6 C 12,4 km/h (2 Bft) 100,00 %
18/09/2019 01:06 12,4 C 74 % 1024,9 hPa 0,0 mm 9,2 km/h (2 Bft) NE 34 0 min 0 min 0,000 mm 0,0 UV-I 0 W/m 7,9 C 10,7 C 15,9 km/h (3 Bft) 100,00 %
18/09/2019 01:05 12,4 C 74 % 1024,9 hPa 0,0 mm 8,1 km/h (2 Bft) N-NE 23 0 min 0 min 0,000 mm 0,0 UV-I 0 W/m 7,9 C 11,3 C 14,2 km/h (3 Bft) 100,00 %
18/09/2019 01:04 12,4 C 74 % 1024,9 hPa 0,0 mm 11,5 km/h (2 Bft) NE 38 0 min 0 min 0,000 mm 0,0 UV-I 0 W/m 7,9 C 9,5 C 17,7 km/h (3 Bft) 100,00 %
18/09/2019 01:03 12,4 C 74 % 1024,8 hPa 0,0 mm 9,8 km/h (2 Bft) NE 44 0 min 0 min 0,000 mm 0,0 UV-I 0 W/m 7,9 C 10,4 C 17,7 km/h (3 Bft) 100,00 %
18/09/2019 01:02 12,4 C 74 % 1024,8 hPa 0,0 mm 10,3 km/h (2 Bft) E-NE 65 0 min 0 min 0,000 mm 0,0 UV-I 0 W/m 7,9 C 10,1 C 15,9 km/h (3 Bft) 100,00 %
18/09/2019 01:01 12,4 C 74 % 1024,8 hPa 0,0 mm 8,4 km/h (2 Bft) N 11 0 min 0 min 0,051 mm 0,0 UV-I 0 W/m 7,9 C 11,1 C 17,7 km/h (3 Bft) 95,83 %
18/09/2019 01:00 12,4 C 74 % 1024,8 hPa 0,0 mm 10,6 km/h (2 Bft) N-NE 29 0 min 0 min 0,000 mm 0,0 UV-I 0 W/m 7,9 C 9,9 C 15,9 km/h (3 Bft) 100,00 %
18/09/2019 00:59 12,4 C 74 % 1024,8 hPa 0,0 mm 7,9 km/h (2 Bft) NE 46 0 min 0 min 0,000 mm 0,0 UV-I 0 W/m 7,9 C 11,4 C 10,6 km/h (2 Bft) 96,00 %
18/09/2019 00:58 12,5 C 74 % 1024,8 hPa 0,0 mm 7,6 km/h (2 Bft) NE 35 0 min 0 min 0,000 mm 0,0 UV-I 0 W/m 8,0 C 11,7 C 10,6 km/h (2 Bft) 100,00 %
18/09/2019 00:57 12,5 C 74 % 1024,9 hPa 0,0 mm 8,7 km/h (2 Bft) NE 42 0 min 0 min 0,000 mm 0,0 UV-I 0 W/m 8,0 C 11,1 C 12,4 km/h (2 Bft) 93,33 %
18/09/2019 00:56 12,5 C 73 % 1024,8 hPa 0,0 mm 10,4 km/h (2 Bft) NE 51 0 min 0 min 0,000 mm 0,0 UV-I 0 W/m 7,8 C 10,2 C 17,7 km/h (3 Bft) 96,00 %
18/09/2019 00:55 12,6 C 73 % 1024,9 hPa 0,0 mm 11,4 km/h (2 Bft) E-NE 58 0 min 0 min 0,000 mm 0,0 UV-I 0 W/m 7,9 C 9,8 C 17,7 km/h (3 Bft) 100,00 %
18/09/2019 00:54 12,6 C 73 % 1024,8 hPa 0,0 mm 12,6 km/h (3 Bft) NE 37 0 min 0 min 0,000 mm 0,0 UV-I 0 W/m 7,9 C 9,2 C 17,7 km/h (3 Bft) 94,12 %
18/09/2019 00:53 12,6 C 73 % 1024,9 hPa 0,0 mm 10,6 km/h (2 Bft) NE 41 0 min 0 min 0,000 mm 0,0 UV-I 0 W/m 7,9 C 10,2 C 14,2 km/h (3 Bft) 100,00 %
18/09/2019 00:52 12,6 C 73 % 1024,9 hPa 0,0 mm 11,0 km/h (2 Bft) NE 42 0 min 0 min 0,000 mm 0,0 UV-I 0 W/m 7,9 C 10,0 C 17,7 km/h (3 Bft) 92,59 %
18/09/2019 00:51 12,6 C 73 % 1024,9 hPa 0,0 mm 9,0 km/h (2 Bft) N-NE 28 0 min 0 min 0,000 mm 0,0 UV-I 0 W/m 7,9 C 11,0 C 17,7 km/h (3 Bft) 100,00 %
18/09/2019 00:50 12,6 C 73 % 1024,9 hPa 0,0 mm 9,0 km/h (2 Bft) N-NO 348 0 min 0 min 0,000 mm 0,0 UV-I 0 W/m 7,9 C 11,0 C 14,2 km/h (3 Bft) 99,12 %
18/09/2019 00:49 12,6 C 73 % 1024,9 hPa 0,0 mm 9,2 km/h (2 Bft) N-NE 20 0 min 0 min 0,000 mm 0,0 UV-I 0 W/m 7,9 C 10,9 C 14,2 km/h (3 Bft) 100,00 %
18/09/2019 00:48 12,7 C 73 % 1024,8 hPa 0,0 mm 7,5 km/h (2 Bft) N-NE 33 0 min 0 min 0,000 mm 0,0 UV-I 0 W/m 8,0 C 12,0 C 10,6 km/h (2 Bft) 100,00 %
18/09/2019 00:47 12,7 C 73 % 1024,8 hPa 0,0 mm 8,2 km/h (2 Bft) NE 34 0 min 0 min 0,000 mm 0,0 UV-I 0 W/m 8,0 C 11,6 C 12,4 km/h (2 Bft) 100,00 %
18/09/2019 00:46 12,7 C 73 % 1024,8 hPa 0,0 mm 8,5 km/h (2 Bft) N-NE 32 0 min 0 min 0,000 mm 0,0 UV-I 0 W/m 8,0 C 11,4 C 14,2 km/h (3 Bft) 100,00 %
18/09/2019 00:45 12,7 C 73 % 1024,7 hPa 0,0 mm 7,6 km/h (2 Bft) E-NE 57 0 min 0 min 0,000 mm 0,0 UV-I 0 W/m 8,0 C 11,9 C 12,4 km/h (2 Bft) 100,00 %
18/09/2019 00:44 12,7 C 73 % 1024,7 hPa 0,0 mm 9,2 km/h (2 Bft) NE 36 0 min 0 min 0,000 mm 0,0 UV-I 0 W/m 8,0 C 11,0 C 15,9 km/h (3 Bft) 100,00 %
18/09/2019 00:43 12,8 C 73 % 1024,7 hPa 0,0 mm 9,8 km/h (2 Bft) NE 49 0 min 0 min 0,000 mm 0,0 UV-I 0 W/m 8,1 C 10,8 C 15,9 km/h (3 Bft) 100,00 %
18/09/2019 00:42 12,8 C 73 % 1024,7 hPa 0,0 mm 8,9 km/h (2 Bft) N-NE 16 0 min 0 min 0,000 mm 0,0 UV-I 0 W/m 8,1 C 11,3 C 14,2 km/h (3 Bft) 100,00 %
18/09/2019 00:41 12,8 C 73 % 1024,6 hPa 0,0 mm 11,0 km/h (2 Bft) N-NE 30 0 min 0 min 0,000 mm 0,0 UV-I 0 W/m 8,1 C 10,2 C 14,2 km/h (3 Bft) 100,00 %
18/09/2019 00:40 12,8 C 72 % 1024,6 hPa 0,0 mm 7,7 km/h (2 Bft) NE 34 0 min 0 min 0,000 mm 0,0 UV-I 0 W/m 7,9 C 12,0 C 14,2 km/h (3 Bft) 100,00 %
18/09/2019 00:39 12,8 C 73 % 1024,6 hPa 0,0 mm 10,4 km/h (2 Bft) E-NE 72 0 min 0 min 0,000 mm 0,0 UV-I 0 W/m 8,1 C 10,5 C 17,7 km/h (3 Bft) 100,00 %
18/09/2019 00:38 12,8 C 72 % 1024,6 hPa 0,0 mm 11,2 km/h (2 Bft) NE 42 0 min 0 min 0,000 mm 0,0 UV-I 0 W/m 7,9 C 10,1 C 17,7 km/h (3 Bft) 96,00 %
18/09/2019 00:37 12,8 C 72 % 1024,6 hPa 0,0 mm 9,5 km/h (2 Bft) NE 55 0 min 0 min 0,000 mm 0,0 UV-I 0 W/m 7,9 C 10,9 C 17,7 km/h (3 Bft) 96,00 %
18/09/2019 00:36 12,8 C 72 % 1024,6 hPa 0,0 mm 7,5 km/h (2 Bft) NE 36 0 min 0 min 0,000 mm 0,0 UV-I 0 W/m 7,9 C 12,1 C 14,2 km/h (3 Bft) 100,00 %
18/09/2019 00:35 12,8 C 72 % 1024,6 hPa 0,0 mm 10,3 km/h (2 Bft) NE 54 0 min 0 min 0,000 mm 0,0 UV-I 0 W/m 7,9 C 10,5 C 19,5 km/h (3 Bft) 100,00 %
18/09/2019 00:34 12,9 C 72 % 1024,6 hPa 0,0 mm 14,0 km/h (3 Bft) E-NE 62 0 min 0 min 0,000 mm 0,0 UV-I 0 W/m 8,0 C 9,0 C 24,8 km/h (4 Bft) 100,00 %
18/09/2019 00:33 12,8 C 72 % 1024,6 hPa 0,0 mm 11,5 km/h (2 Bft) N-NE 22 0 min 0 min 0,000 mm 0,0 UV-I 0 W/m 7,9 C 10,0 C 17,7 km/h (3 Bft) 100,00 %
18/09/2019 00:32 12,9 C 72 % 1024,5 hPa 0,0 mm 11,8 km/h (2 Bft) NE 40 0 min 0 min 0,000 mm 0,0 UV-I 0 W/m 8,0 C 9,9 C 15,9 km/h (3 Bft) 100,00 %
18/09/2019 00:31 12,9 C 72 % 1024,5 hPa 0,0 mm 9,6 km/h (2 Bft) NE 52 0 min 0 min 0,000 mm 0,0 UV-I 0 W/m 8,0 C 11,0 C 17,7 km/h (3 Bft) 92,86 %
18/09/2019 00:30 12,9 C 72 % 1024,6 hPa 0,0 mm 7,5 km/h (2 Bft) N-NE 30 0 min 0 min 0,000 mm 0,0 UV-I 0 W/m 8,0 C 12,2 C 12,4 km/h (2 Bft) 100,00 %
18/09/2019 00:29 12,9 C 72 % 1024,6 hPa 0,0 mm 9,1 km/h (2 Bft) NE 47 0 min 0 min 0,000 mm 0,0 UV-I 0 W/m 8,0 C 11,3 C 15,9 km/h (3 Bft) 97,67 %
18/09/2019 00:28 12,9 C 72 % 1024,5 hPa 0,0 mm 8,9 km/h (2 Bft) E-NE 59 0 min 0 min 0,000 mm 0,0 UV-I 0 W/m 8,0 C 11,4 C 15,9 km/h (3 Bft) 99,05 %
18/09/2019 00:27 12,9 C 72 % 1024,6 hPa 0,0 mm 7,5 km/h (2 Bft) E-NE 70 0 min 0 min 0,000 mm 0,0 UV-I 0 W/m 8,0 C 12,2 C 14,2 km/h (3 Bft) 96,15 %
18/09/2019 00:26 12,9 C 72 % 1024,6 hPa 0,0 mm 8,9 km/h (2 Bft) NE 38 0 min 0 min 0,000 mm 0,0 UV-I 0 W/m 8,0 C 11,4 C 15,9 km/h (3 Bft) 100,00 %
18/09/2019 00:25 12,9 C 72 % 1024,6 hPa 0,0 mm 11,4 km/h (2 Bft) NE 43 0 min 0 min 0,000 mm 0,0 UV-I 0 W/m 8,0 C 10,1 C 17,7 km/h (3 Bft) 86,67 %
18/09/2019 00:24 12,9 C 73 % 1024,6 hPa 0,0 mm 9,8 km/h (2 Bft) NE 55 0 min 0 min 0,000 mm 0,0 UV-I 0 W/m 8,2 C 10,9 C 19,5 km/h (3 Bft) 100,00 %
18/09/2019 00:23 12,9 C 73 % 1024,5 hPa 0,0 mm 8,8 km/h (2 Bft) N-NE 28 0 min 0 min 0,000 mm 0,0 UV-I 0 W/m 8,2 C 11,4 C 14,2 km/h (3 Bft) 93,33 %
18/09/2019 00:22 12,9 C 73 % 1024,6 hPa 0,0 mm 8,8 km/h (2 Bft) E-NE 69 0 min 0 min 0,000 mm 0,0 UV-I 0 W/m 8,2 C 11,4 C 12,4 km/h (2 Bft) 100,00 %
18/09/2019 00:21 12,9 C 73 % 1024,6 hPa 0,0 mm 9,9 km/h (2 Bft) N-NE 33 0 min 0 min 0,000 mm 0,0 UV-I 0 W/m 8,2 C 10,8 C 15,9 km/h (3 Bft) 100,00 %
18/09/2019 00:20 13,0 C 73 % 1024,6 hPa 0,0 mm 9,5 km/h (2 Bft) E-NE 61 0 min 0 min 0,000 mm 0,0 UV-I 0 W/m 8,3 C 11,2 C 17,7 km/h (3 Bft) 96,15 %
18/09/2019 00:19 13,0 C 73 % 1024,6 hPa 0,0 mm 10,9 km/h (2 Bft) NE 53 0 min 0 min 0,000 mm 0,0 UV-I 0 W/m 8,3 C 10,5 C 21,2 km/h (4 Bft) 95,83 %
18/09/2019 00:18 13,0 C 73 % 1024,6 hPa 0,0 mm 10,9 km/h (2 Bft) N-NE 22 0 min 0 min 0,000 mm 0,0 UV-I 0 W/m 8,3 C 10,5 C 15,9 km/h (3 Bft) 100,00 %
18/09/2019 00:17 13,0 C 73 % 1024,6 hPa 0,0 mm 11,2 km/h (2 Bft) NE 44 0 min 0 min 0,000 mm 0,0 UV-I 0 W/m 8,3 C 10,3 C 19,5 km/h (3 Bft) 100,00 %
18/09/2019 00:16 13,1 C 73 % 1024,6 hPa 0,0 mm 6,7 km/h (2 Bft) NE 37 0 min 0 min 0,000 mm 0,0 UV-I 0 W/m 8,4 C 12,9 C 8,9 km/h (2 Bft) 100,00 %
18/09/2019 00:15 13,1 C 73 % 1024,6 hPa 0,0 mm 10,2 km/h (2 Bft) NE 38 0 min 0 min 0,000 mm 0,0 UV-I 0 W/m 8,4 C 10,9 C 15,9 km/h (3 Bft) 100,00 %
18/09/2019 00:14 13,1 C 73 % 1024,6 hPa 0,0 mm 13,0 km/h (3 Bft) N-NE 23 0 min 0 min 0,000 mm 0,0 UV-I 0 W/m 8,4 C 9,7 C 19,5 km/h (3 Bft) 100,00 %
18/09/2019 00:13 13,1 C 73 % 1024,6 hPa 0,0 mm 10,9 km/h (2 Bft) NE 40 0 min 0 min 0,000 mm 0,0 UV-I 0 W/m 8,4 C 10,6 C 17,7 km/h (3 Bft) 100,00 %
18/09/2019 00:12 13,1 C 73 % 1024,6 hPa 0,0 mm 7,5 km/h (2 Bft) NE 51 0 min 0 min 0,000 mm 0,0 UV-I 0 W/m 8,4 C 12,4 C 12,4 km/h (2 Bft) 100,00 %
18/09/2019 00:11 13,1 C 73 % 1024,6 hPa 0,0 mm 9,9 km/h (2 Bft) N-NE 30 0 min 0 min 0,000 mm 0,0 UV-I 0 W/m 8,4 C 11,1 C 17,7 km/h (3 Bft) 100,00 %
18/09/2019 00:10 13,1 C 73 % 1024,7 hPa 0,0 mm 9,4 km/h (2 Bft) NE 53 0 min 0 min 0,000 mm 0,0 UV-I 0 W/m 8,4 C 11,3 C 17,7 km/h (3 Bft) 100,00 %
18/09/2019 00:09 13,1 C 74 % 1024,6 hPa 0,0 mm 12,3 km/h (2 Bft) N-NE 22 0 min 0 min 0,000 mm 0,0 UV-I 0 W/m 8,6 C 10,0 C 17,7 km/h (3 Bft) 100,00 %
18/09/2019 00:08 13,1 C 74 % 1024,7 hPa 0,0 mm 12,5 km/h (2 Bft) NE 40 0 min 0 min 0,000 mm 0,0 UV-I 0 W/m 8,6 C 9,9 C 15,9 km/h (3 Bft) 100,00 %
18/09/2019 00:07 13,1 C 74 % 1024,7 hPa 0,0 mm 14,1 km/h (3 Bft) NE 47 0 min 0 min 0,000 mm 0,0 UV-I 0 W/m 8,6 C 9,2 C 17,7 km/h (3 Bft) 100,00 %
18/09/2019 00:06 13,1 C 74 % 1024,6 hPa 0,0 mm 11,7 km/h (2 Bft) N 5 0 min 0 min 0,000 mm 0,0 UV-I 0 W/m 8,6 C 10,2 C 23,0 km/h (4 Bft) 100,00 %
18/09/2019 00:03 13,1 C 74 % 1024,6 hPa 0,0 mm 12,4 km/h (2 Bft) NE 40 0 min 0 min 0,000 mm 0,0 UV-I 0 W/m 8,6 C 9,9 C 17,7 km/h (3 Bft) 100,00 %
18/09/2019 00:02 13,1 C 74 % 1024,7 hPa 0,0 mm 9,7 km/h (2 Bft) E-NE 68 0 min 0 min 0,000 mm 0,0 UV-I 0 W/m 8,6 C 11,2 C 15,9 km/h (3 Bft) 100,00 %
18/09/2019 00:01 13,1 C 74 % 1024,6 hPa 0,0 mm 7,5 km/h (2 Bft) E-NE 65 0 min 0 min 0,000 mm 0,0 UV-I 0 W/m 8,6 C 12,4 C 12,4 km/h (2 Bft) 100,00 %
18/09/2019 00:00 13,1 C 74 % 1024,6 hPa 0,0 mm 12,0 km/h (2 Bft) NE 46 0 min 0 min 0,000 mm 0,0 UV-I 0 W/m 8,6 C 10,1 C 15,9 km/h (3 Bft) 96,30 %
_ Min-Heure 01:09 00:25 00:23 - 00:16 - - - - - - - 00:56 00:34 00:16 00:25
Minimum _ 12,3 C 72 % 1024,5 hPa - 6,7 km/h (2 Bft) - - - - - - - 7,8 C 9,0 C 8,9 km/h (2 Bft) 86,67 %
_ Max-Heure 00:00 00:00 01:07 00:00 00:07 - - 00:00 00:00 01:01 00:00 00:00 00:00 00:16 00:34 00:01
Maximum _ 13,1 C 74 % 1025,0 hPa 0,0 mm 14,1 km/h
NE (3 Bft)
- - 0 min 0 min 0,051 mm 0,0 UV-I 0 W/m 8,6 C 12,9 C 24,8 km/h
N-NE (4 Bft)
100,00 %
Moyenne _ 12,8 C 73 % 1024,7 hPa #0,0 mm 9,9 km/h (2 Bft) NE - #0 min. #0 min. #0,051 mm 0,0 UV-I 0 W/m 8,1 C 10,8 C 16,2 km/h (3 Bft) 98,61 %
Grandfresnoy - Oise - Picardie